Location: Tel Aviv
(32.0670°N, 34.7670°E)
Time: 16:28:01
(UTC+02:00)

RS-44 - Visible Passes

Search period start: 21 March 2023 00:00
Search period end: 31 March 2023 01:00
Orbit: 1174 x 1511 km, 82.5° (Epoch: 20 March)

Date Brightness Start Highest point End Pass type
(mag) Time Alt. Az. Time Alt. Az. Time Alt. Az.
21 Mar ? 01:33:15 10° N 01:37:51 31° NE 01:37:51 31° NE visible
21 Mar ? 03:26:47 10° NNW 03:30:25 26° NW 03:30:25 26° NW visible
22 Mar ? 01:56:35 10° N 02:01:07 37° NNE 02:01:07 37° NNE visible
22 Mar ? 03:51:38 10° NW 03:53:40 16° NW 03:53:40 16° NW visible
23 Mar ? 00:29:35 10° NE 00:31:51 14° NE 00:31:51 14° NE visible
23 Mar ? 02:20:15 10° N 02:24:25 35° N 02:24:25 35° N visible
24 Mar ? 00:51:44 10° NNE 00:55:12 22° NE 00:55:12 22° NE visible
24 Mar ? 03:44:14 10° NNW 03:47:46 28° NNW 03:47:46 28° NNW visible
25 Mar ? 02:14:44 10° N 02:18:35 28° NNE 02:18:35 28° NNE visible
25 Mar ? 04:08:38 10° NNW 04:11:10 20° NW 04:11:10 20° NW visible
26 Mar ? 02:38:10 10° N 02:42:01 32° N 02:42:01 32° N visible
26 Mar ? 04:33:44 10° NW 04:34:36 12° NW 04:34:36 12° NW visible
27 Mar ? 01:10:38 10° NNE 01:12:54 15° NE 01:12:54 15° NE visible
27 Mar ? 03:01:56 10° N 03:05:28 30° NNW 03:05:28 30° NNW visible
28 Mar ? 01:33:08 10° NNE 01:36:23 22° NE 01:36:23 22° NE visible
28 Mar ? 03:26:02 10° NNW 03:28:57 24° NNW 03:28:57 24° NNW visible
29 Mar ? 01:56:17 10° N 01:59:53 28° NNE 01:59:53 28° NNE visible
29 Mar ? 03:50:34 10° NNW 03:52:27 17° NW 03:52:27 17° NW visible
30 Mar ? 00:30:30 10° NE 00:30:49 10° NE 00:30:49 10° NE visible
30 Mar ? 02:19:49 10° N 02:23:24 30° N 02:23:24 30° N visible
30 Mar ? 04:15:57 10° NW 04:15:59 10° NW 04:15:59 10° NW visible
